Hourly Data Report for September 16, 2017

All times are specified in Local Standard Time (LST). Add 1 hour to adjust for Daylight Saving Time where and when it is observed.

ALGONQUIN PARK EAST GATE
ONTARIO

45°32'00.000" N
78°16'00.000" W
397.00 m
6080192
71581
TNK

Download Data

Hourly Data (September 2017)
Hourly Data Report for September 16, 2017
Temp Definition
°C
Dew Point Temp Definition
°C
Rel Hum Definition
%
Wind Dir Definition
10's deg

Wind Spd Definition
km/h
Visibility Definition
km
Stn Press Definition
kPa
Hmdx Definition


Wind Chill Definition


Weather Definition


TIME
00:00 11.4 10.1 92 LegendMM LegendMM   97.45     LegendNANA
01:00 11.0 9.7 92 LegendMM LegendMM   97.44     LegendNANA
02:00 10.7 9.6 93 LegendMM LegendMM   97.46     LegendNANA
03:00 10.6 9.5 93 LegendMM LegendMM   97.47     LegendNANA
04:00 9.8 8.7 93 LegendMM LegendMM   97.47     LegendNANA
05:00 9.7 8.6 93 LegendMM LegendMM   97.48     LegendNANA
06:00 9.3 8.3 93 LegendMM LegendMM   97.50     LegendNANA
07:00 10.7 9.7 93 LegendMM LegendMM   97.53     LegendNANA
08:00 14.1 12.3 89 LegendMM LegendMM   97.58     LegendNANA
09:00 19.2 15.3 79 LegendMM LegendMM   97.56     LegendNANA
10:00 22.2 15.5 66 LegendMM LegendMM   97.56 26   LegendNANA
11:00 22.3 15.7 66 LegendMM LegendMM   97.54 27   LegendNANA
12:00 24.6 14.9 55 LegendMM LegendMM   97.49 29   LegendNANA
13:00 25.3 15.3 54 LegendMM LegendMM   97.46 29   LegendNANA
14:00 25.3 13.9 49 LegendMM LegendMM   97.42 29   LegendNANA
15:00 24.9 15.2 55 LegendMM LegendMM   97.40 29   LegendNANA
16:00 24.4 14.6 55 LegendMM LegendMM   97.38 28   LegendNANA
17:00 22.4 16.3 68 LegendMM LegendMM   97.37 27   LegendNANA
18:00 20.2 16.2 78 LegendMM LegendMM   97.36 25   LegendNANA
19:00 18.1 15.5 85 LegendMM LegendMM   97.38     LegendNANA
20:00 16.6 14.6 88 LegendMM LegendMM   97.41     LegendNANA
21:00 15.3 13.4 88 LegendMM LegendMM   97.43     LegendNANA
22:00 14.4 12.7 90 LegendMM LegendMM   97.44     LegendNANA
23:00 13.3 11.7 90 LegendMM LegendMM   97.41     LegendNANA

Notes on Data Quality.

Legend

  • E = Estimated
  • M = Missing
  • NA = Not Available
  • ‡ = Partner data that is not subject to review by the National Climate Archives
Date modified: